Domov               UVHVVR             MKGP            O straneh              
ZDRAVSTVENO VARSTVO RASTLIN
  MREŽA AGROMET. POSTAJ
 ► PROGNOSTIČNA OBVESTILA
AGROMETEOROLOŠKI PODATKI -
ARSO
OBVLADOVANJE TVEGANJ ZARADI
NEUGODNIH VREMENSKIH RAZMER
  ► NARAVNE NESREČE
  ► SUŠA/MOČA
  ► NAMAKANJE
  ► ŽLED (gozdarstvo)
KARTOGRAFSKI PRIKAZI
SPLETNE POVEZAVE
PROJEKTI IN PUBLIKACIJE

AGROMETEOROLOŠKA MREŽA: VREMENSKE POSTAJE IN FENOLOŠKA OPAZOVANJA

Pregled podatkov za lokacijo Kozana, meteorološka postaja 863701

Pregled senzorjev na lokaciji

ID Ime Zadnja
vrednost
Datum
zadnje
spremembe
Tip
senzorja
4186 Temperatura 2 m (°C) 8,78 °C 15.12.2017 20:00 50YA
4187 Relativna vlaga 2 m (% RH) 89,59 % RH 15.12.2017 20:00 50YA
4188 Omočenost lista (U) 8 U 15.12.2017 20:00 A730WET
4189 Padavine (mm) 0 mm 15.12.2017 20:00 Rain-O-Matic

Pregled podatkov zadnjih 24 ur

Zap.
št.
Datum in čas Kozana
Omočenost
lista
Padavine Relativna
vlaga
2
m
Temperatura
2
m
0 15.12.2017 20:00 8 0 89,59 8,78
1 15.12.2017 19:30 10 0 90,94 8,82
2 15.12.2017 19:00 4 0 90,38 9,04
3 15.12.2017 18:30 1 0 90,75 9
4 15.12.2017 18:00 0 0 92,94 8,88
5 15.12.2017 17:30 2 0 93,54 8,84
6 15.12.2017 17:00 9 0 94,39 8,87
7 15.12.2017 16:30 10 0 95,28 9,02
8 15.12.2017 16:00 8 0 96,3 9,26
9 15.12.2017 15:30 0 0 96,97 9,38
10 15.12.2017 15:00 7 0 97,42 9,3
11 15.12.2017 14:30 10 0,2 97,36 9,29
12 15.12.2017 14:00 10 0,6 92,04 9,86
13 15.12.2017 13:30 1 0 88,36 10,48
14 15.12.2017 13:00 0 0 89,27 10,52
15 15.12.2017 12:30 0 0 90,33 10,36
16 15.12.2017 12:00 10 0 91,05 9,94
17 15.12.2017 11:30 0 0 90,63 9,97
18 15.12.2017 11:00 3 0 90,03 9,99
19 15.12.2017 10:30 3 0 93,2 9,4
20 15.12.2017 10:00 1 0,2 96,53 8,9
21 15.12.2017 09:30 10 0 96,89 8,64
22 15.12.2017 09:00 10 0,2 95,03 8,66
23 15.12.2017 08:30 10 0,2 96,23 8,42
24 15.12.2017 08:00 9 0 91,81 8,79
25 15.12.2017 07:30 3 0 92,74 8,73
26 15.12.2017 07:00 10 0 96,16 8,37
27 15.12.2017 06:30 10 0,2 94,97 8,52
28 15.12.2017 06:00 10 0 92,6 8,66
29 15.12.2017 05:30 10 0 91,42 8,81
30 15.12.2017 05:00 9 0 93,56 8,4
31 15.12.2017 04:30 8 0 93,99 8,24
32 15.12.2017 04:00 10 0 94,23 8,15
33 15.12.2017 03:30 10 0 95,32 7,9
34 15.12.2017 03:00 10 0 96,92 7,63
35 15.12.2017 02:30 6 0 96,17 7,61
36 15.12.2017 02:00 0 0 94,65 7,66
37 15.12.2017 01:30 0 0 94,36 7,61
38 15.12.2017 01:00 0 0 92,92 7,75
39 15.12.2017 00:30 0 0 92,54 7,7
40 15.12.2017 00:00 0 0 93,88 7,22
41 14.12.2017 23:30 0 0 95,48 6,45
42 14.12.2017 23:00 0 0 93,16 6,57
43 14.12.2017 22:30 0 0 93,66 6,51
44 14.12.2017 22:00 0 0 92,67 6,58
45 14.12.2017 21:30 0 0 93,05 6,38
46 14.12.2017 21:00 0 0 96,45 6,02
© 2011 Ministrstvo za kmetijstvo, gozdarstvo in prehrano. Vse pravice pridržane.